| time (UTC) | temp F | wind direction | speed knots | gust knots | rain 1hr in | rain 24hr in | rain mn in | humidity % | barometer mb |
| 20260504021554 | 50 | 0 | 0.9 | 3.5 | 0.00 | 0.01 | 0.01 | 79 | 1013.1 |
| 20260504021043 | 50 | 218 | 1.7 | 3.5 | 0.00 | 0.01 | 0.01 | 78 | 1013.0 |
| 20260504020541 | 50 | 205 | 0.0 | 2.6 | 0.00 | 0.01 | 0.01 | 79 | 1013.1 |
| 20260504020051 | 50 | 175 | 0.0 | 3.5 | 0.00 | 0.01 | 0.01 | 79 | 1013.1 |
| 20260504015542 | 51 | 0 | 0.0 | 4.3 | 0.00 | 0.01 | 0.01 | 80 | 1013.1 |
| 20260504015041 | 51 | 0 | 1.7 | 4.3 | 0.00 | 0.01 | 0.01 | 80 | 1013.1 |
| 20260504014601 | 51 | 250 | 0.0 | 3.5 | 0.00 | 0.01 | 0.01 | 80 | 1013.2 |
| 20260504014044 | 51 | 0 | 0.0 | 3.5 | 0.00 | 0.01 | 0.01 | 80 | 1013.1 |
| 20260504013540 | 52 | 0 | 0.0 | 3.5 | 0.00 | 0.01 | 0.01 | 80 | 1013.2 |
| 20260504013100 | 52 | 0 | 0.0 | 2.6 | 0.00 | 0.01 | 0.01 | 80 | 1013.2 |
| 20260504012545 | 52 | 240 | 0.9 | 2.6 | 0.00 | 0.01 | 0.01 | 79 | 1013.3 |
| 20260504012041 | 52 | 0 | 0.0 | 2.6 | 0.00 | 0.01 | 0.01 | 78 | 1013.2 |
| 20260504011551 | 52 | 348 | 0.9 | 2.6 | 0.00 | 0.01 | 0.01 | 78 | 1013.1 |
| 20260504011039 | 53 | 348 | 0.9 | 2.6 | 0.00 | 0.01 | 0.01 | 77 | 1013.2 |
| 20260504010541 | 53 | 0 | 0.0 | 2.6 | 0.00 | 0.01 | 0.01 | 77 | 1013.2 |
| 20260504010113 | 53 | 0 | 0.9 | 5.2 | 0.00 | 0.01 | 0.01 | 76 | 1013.1 |
| 20260504005542 | 53 | 299 | 1.7 | 5.2 | 0.00 | 0.01 | 0.01 | 76 | 1013.1 |
| 20260504005042 | 53 | 263 | 0.9 | 3.5 | 0.00 | 0.01 | 0.01 | 73 | 1013.1 |
| 20260504004553 | 53 | 248 | 0.9 | 3.5 | 0.00 | 0.01 | 0.01 | 73 | 1013.0 |
| 20260504004044 | 53 | 300 | 1.7 | 4.3 | 0.00 | 0.01 | 0.01 | 72 | 1012.9 |
| 20260504003546 | 54 | 194 | 1.7 | 4.3 | 0.00 | 0.01 | 0.01 | 70 | 1012.9 |
| 20260504003050 | 54 | 221 | 1.7 | 5.2 | 0.00 | 0.01 | 0.01 | 69 | 1012.9 |
| 20260504002540 | 54 | 212 | 1.7 | 5.2 | 0.00 | 0.01 | 0.01 | 68 | 1012.9 |
| 20260504002043 | 54 | 188 | 0.9 | 5.2 | 0.00 | 0.01 | 0.01 | 68 | 1013.0 |
| 20260504001600 | 55 | 228 | 1.7 | 5.2 | 0.00 | 0.01 | 0.01 | 67 | 1012.9 |
| 20260504001043 | 55 | 247 | 1.7 | 6.1 | 0.00 | 0.01 | 0.01 | 68 | 1012.9 |
| 20260504000539 | 55 | 240 | 1.7 | 6.1 | 0.00 | 0.01 | 0.01 | 67 | 1012.8 |
| 20260504000058 | 55 | 145 | 0.9 | 7.0 | 0.00 | 0.01 | 0.01 | 68 | 1012.8 |
| 20260503235547 | 55 | 238 | 1.7 | 7.0 | 0.00 | 0.01 | 0.01 | 68 | 1012.8 |
| 20260503235040 | 55 | 200 | 1.7 | 6.1 | 0.00 | 0.01 | 0.01 | 68 | 1012.8 |
| 20260503234551 | 55 | 0 | 0.9 | 4.3 | 0.00 | 0.01 | 0.01 | 74 | 1012.7 |
| 20260503234041 | 55 | 255 | 0.9 | 5.2 | 0.00 | 0.01 | 0.01 | 73 | 1012.9 |
| 20260503233541 | 55 | 202 | 1.7 | 5.2 | 0.00 | 0.01 | 0.01 | 69 | 1012.9 |
| 20260503233059 | 54 | 202 | 1.7 | 4.3 | 0.00 | 0.01 | 0.01 | 69 | 1012.9 |
| 20260503232542 | 54 | 219 | 0.9 | 4.3 | 0.00 | 0.01 | 0.01 | 70 | 1012.9 |
| 20260503232040 | 54 | 241 | 0.9 | 4.3 | 0.00 | 0.01 | 0.01 | 70 | 1012.9 |
| 20260503231550 | 55 | 191 | 0.9 | 4.3 | 0.00 | 0.01 | 0.01 | 70 | 1012.9 |
| 20260503231041 | 55 | 0 | 0.0 | 2.6 | 0.00 | 0.01 | 0.01 | 76 | 1013.1 |
| 20260503230544 | 54 | 0 | 0.0 | 2.6 | 0.00 | 0.01 | 0.01 | 71 | 1013.0 |
| 20260503230051 | 54 | 0 | 0.9 | 5.2 | 0.00 | 0.01 | 0.01 | 73 | 1012.9 |
| 20260503225546 | 53 | 0 | 0.0 | 5.2 | 0.00 | 0.01 | 0.01 | 74 | 1013.0 |
| 20260503225043 | 53 | 88 | 0.9 | 4.3 | 0.00 | 0.01 | 0.01 | 73 | 1013.2 |
| 20260503224547 | 53 | 198 | 1.7 | 5.2 | 0.00 | 0.01 | 0.01 | 74 | 1013.1 |
| 20260503224043 | 53 | 219 | 1.7 | 5.2 | 0.00 | 0.01 | 0.01 | 75 | 1013.3 |
| 20260503223543 | 52 | 221 | 0.0 | 5.2 | 0.00 | 0.01 | 0.01 | 77 | 1013.1 |
| 20260503223050 | 52 | 210 | 1.7 | 5.2 | 0.00 | 0.01 | 0.01 | 77 | 1013.2 |
| 20260503222544 | 52 | 203 | 1.7 | 7.0 | 0.00 | 0.01 | 0.01 | 78 | 1013.2 |
| 20260503221733 | 52 | 188 | 2.6 | 6.1 | 0.00 | 0.01 | 0.01 | 78 | 1013.2 |
| 20260503221041 | 52 | 209 | 0.9 | 5.2 | 0.00 | 0.01 | 0.01 | 80 | 1013.2 |
| 20260503220545 | 52 | 207 | 0.9 | 5.2 | 0.00 | 0.01 | 0.01 | 79 | 1013.2 |
| 20260503220057 | 53 | 213 | 2.6 | 5.2 | 0.00 | 0.01 | 0.01 | 79 | 1013.2 |
| 20260503215545 | 53 | 211 | 0.0 | 3.5 | 0.00 | 0.01 | 0.01 | 80 | 1013.3 |
| 20260503215040 | 53 | 0 | 0.9 | 4.3 | 0.00 | 0.01 | 0.01 | 79 | 1013.2 |
| 20260503214551 | 53 | 201 | 1.7 | 4.3 | 0.00 | 0.01 | 0.01 | 78 | 1013.3 |
| 20260503214044 | 53 | 204 | 1.7 | 4.3 | 0.00 | 0.01 | 0.01 | 77 | 1013.2 |
| 20260503213548 | 53 | 0 | 0.9 | 3.5 | 0.00 | 0.01 | 0.01 | 77 | 1013.2 |
| 20260503213050 | 53 | 225 | 1.7 | 4.3 | 0.00 | 0.01 | 0.01 | 76 | 1013.3 |
| 20260503212544 | 53 | 196 | 0.9 | 4.3 | 0.00 | 0.01 | 0.01 | 74 | 1013.2 |
| 20260503212043 | 54 | 225 | 1.7 | 4.3 | 0.00 | 0.01 | 0.01 | 74 | 1013.1 |
| 20260503211549 | 54 | 215 | 1.7 | 4.3 | 0.00 | 0.01 | 0.01 | 73 | 1013.1 |
| 20260503211043 | 53 | 180 | 0.9 | 4.3 | 0.00 | 0.01 | 0.01 | 74 | 1013.0 |
| 20260503210544 | 53 | 0 | 1.7 | 4.3 | 0.00 | 0.01 | 0.01 | 75 | 1013.1 |
| 20260503210055 | 53 | 213 | 0.9 | 3.5 | 0.00 | 0.01 | 0.01 | 75 | 1013.1 |
| 20260503205544 | 53 | 0 | 0.0 | 4.3 | 0.00 | 0.01 | 0.01 | 78 | 1013.0 |
| 20260503205043 | 53 | 182 | 0.9 | 4.3 | 0.00 | 0.01 | 0.01 | 77 | 1013.1 |
| 20260503204602 | 53 | 108 | 0.9 | 3.5 | 0.00 | 0.01 | 0.01 | 79 | 1013.1 |
| 20260503204046 | 52 | 0 | 0.0 | 3.5 | 0.00 | 0.01 | 0.01 | 80 | 1013.1 |
| 20260503203543 | 52 | 0 | 0.0 | 3.5 | 0.00 | 0.01 | 0.01 | 79 | 1013.1 |
| 20260503203059 | 52 | 205 | 0.0 | 1.7 | 0.00 | 0.01 | 0.01 | 83 | 1013.1 |
| 20260503202540 | 52 | 0 | 0.0 | 1.7 | 0.00 | 0.01 | 0.01 | 82 | 1013.2 |
| 20260503202040 | 52 | 232 | 0.0 | 4.3 | 0.00 | 0.01 | 0.01 | 80 | 1013.2 |
| 20260503201549 | 52 | 227 | 0.0 | 4.3 | 0.00 | 0.01 | 0.01 | 80 | 1013.3 |
| 20260503201045 | 52 | 0 | 0.0 | 2.6 | 0.00 | 0.01 | 0.01 | 80 | 1013.2 |
| 20260503200544 | 52 | 201 | 0.0 | 2.6 | 0.00 | 0.01 | 0.01 | 79 | 1013.1 |
| 20260503200053 | 52 | 212 | 0.0 | 1.7 | 0.00 | 0.01 | 0.01 | 79 | 1013.2 |
| 20260503195545 | 52 | 132 | 0.0 | 2.6 | 0.00 | 0.01 | 0.01 | 81 | 1013.2 |
| 20260503195044 | 52 | 0 | 0.0 | 2.6 | 0.00 | 0.01 | 0.01 | 80 | 1013.2 |
| 20260503194605 | 53 | 0 | 0.0 | 2.6 | 0.00 | 0.01 | 0.01 | 80 | 1013.3 |
| 20260503194044 | 53 | 132 | 0.0 | 2.6 | 0.00 | 0.01 | 0.01 | 82 | 1013.2 |
| 20260503193544 | 53 | 0 | 0.0 | 0.9 | 0.00 | 0.01 | 0.01 | 82 | 1013.3 |
| 20260503193051 | 52 | 0 | 0.0 | 1.7 | 0.00 | 0.01 | 0.01 | 80 | 1013.2 |
| 20260503192543 | 52 | 0 | 0.0 | 1.7 | 0.00 | 0.01 | 0.01 | 81 | 1013.2 |
| 20260503192043 | 52 | 101 | 0.0 | 2.6 | 0.00 | 0.01 | 0.01 | 82 | 1013.2 |
| 20260503191554 | 52 | 0 | 0.0 | 2.6 | 0.00 | 0.01 | 0.01 | 82 | 1013.3 |
| 20260503191043 | 52 | 101 | 0.0 | 2.6 | 0.00 | 0.01 | 0.01 | 82 | 1013.3 |
| 20260503190543 | 52 | 0 | 0.0 | 0.0 | 0.00 | 0.01 | 0.01 | 83 | 1013.3 |
| 20260503190059 | 51 | 0 | 0.0 | 0.0 | 0.00 | 0.01 | 0.01 | 82 | 1013.3 |
| 20260503185545 | 51 | 0 | 0.0 | 0.0 | 0.00 | 0.01 | 0.01 | 82 | 1013.3 |
| 20260503185043 | 51 | 0 | 0.0 | 0.0 | 0.00 | 0.01 | 0.01 | 83 | 1013.3 |
| 20260503184600 | 51 | 0 | 0.0 | 0.0 | 0.00 | 0.01 | 0.01 | 84 | 1013.2 |
| 20260503184044 | 51 | 0 | 0.0 | 1.7 | 0.00 | 0.01 | 0.01 | 87 | 1013.2 |
| 20260503183543 | 51 | 0 | 0.0 | 3.5 | 0.00 | 0.01 | 0.01 | 86 | 1013.2 |
| 20260503183105 | 51 | 0 | 0.0 | 3.5 | 0.00 | 0.01 | 0.01 | 87 | 1013.2 |
| 20260503182543 | 51 | 223 | 0.0 | 2.6 | 0.00 | 0.01 | 0.01 | 89 | 1013.1 |
| 20260503182043 | 51 | 0 | 0.9 | 2.6 | 0.00 | 0.01 | 0.01 | 90 | 1013.1 |
| 20260503181552 | 51 | 0 | 0.0 | 2.6 | 0.00 | 0.01 | 0.01 | 90 | 1013.1 |
| 20260503181044 | 50 | 176 | 0.9 | 4.3 | 0.00 | 0.01 | 0.01 | 91 | 1013.1 |
| 20260503180543 | 50 | 280 | 0.9 | 4.3 | 0.00 | 0.01 | 0.01 | 92 | 1013.1 |
| 20260503180105 | 49 | 0 | 0.9 | 2.6 | 0.00 | 0.01 | 0.01 | 93 | 1013.1 |
| 20260503175544 | 49 | 195 | 0.9 | 5.2 | 0.00 | 0.01 | 0.01 | 95 | 1013.1 |
| 20260503175045 | 49 | 227 | 0.9 | 5.2 | 0.00 | 0.01 | 0.01 | 95 | 1013.2 |
| 20260503174551 | 49 | 111 | 0.9 | 3.5 | 0.00 | 0.01 | 0.01 | 96 | 1013.1 |
| 20260503174044 | 49 | 209 | 0.9 | 2.6 | 0.00 | 0.01 | 0.01 | 96 | 1013.1 |
| 20260503173544 | 48 | 143 | 0.0 | 1.7 | 0.00 | 0.01 | 0.01 | 96 | 1013.1 |
| 20260503173144 | 49 | 0 | 0.0 | 2.6 | 0.00 | 0.01 | 0.01 | 96 | 1013.2 |
| 20260503172544 | 48 | 0 | 0.0 | 2.6 | 0.00 | 0.01 | 0.01 | 96 | 1013.1 |
| 20260503172044 | 48 | 263 | 0.0 | 0.9 | 0.00 | 0.01 | 0.01 | 96 | 1013.2 |
| 20260503171552 | 48 | 0 | 0.0 | 1.7 | 0.01 | 0.01 | 0.01 | 97 | 1013.2 |
| 20260503171045 | 48 | 263 | 0.0 | 1.7 | 0.01 | 0.01 | 0.01 | 97 | 1013.2 |
| 20260503170544 | 48 | 0 | 0.0 | 1.7 | 0.01 | 0.01 | 0.01 | 96 | 1013.2 |
| 20260503150544 | 47 | 0 | 0.9 | 1.7 | 0.00 | 0.00 | 0.00 | 97 | 1012.3 |
| 20260503131043 | 45 | 0 | 0.0 | 0.9 | 0.00 | 0.00 | 0.00 | 96 | 1011.3 |
| 20260503130554 | 45 | 0 | 0.0 | 1.7 | 0.00 | 0.00 | 0.00 | 96 | 1011.2 |
| 20260503130104 | 45 | 0 | 0.0 | 3.5 | 0.00 | 0.00 | 0.00 | 96 | 1011.1 |
| 20260503110544 | 46 | 0 | 0.0 | 1.7 | 0.00 | 0.00 | 0.00 | 96 | 1011.2 |
| 20260503100244 | 46 | 0 | 0.0 | 2.6 | 0.00 | 0.00 | 0.00 | 96 | 1011.1 |
| 20260503081556 | 46 | 310 | 0.9 | 3.5 | 0.00 | 0.00 | 0.00 | 96 | 1012.0 |
| 20260503081044 | 46 | 310 | 1.7 | 4.3 | 0.00 | 0.00 | 0.00 | 96 | 1011.9 |
| 20260503080544 | 46 | 309 | 1.7 | 4.3 | 0.00 | 0.00 | 0.00 | 96 | 1011.8 |
| 20260503072544 | 46 | 314 | 1.7 | 3.5 | 0.00 | 0.00 | 0.00 | 96 | 1012.0 |
| 20260503072044 | 46 | 310 | 1.7 | 4.3 | 0.00 | 0.00 | 0.00 | 96 | 1011.9 |
| 20260503071557 | 46 | 317 | 1.7 | 4.3 | 0.00 | 0.00 | 0.00 | 96 | 1012.0 |
| 20260503071044 | 46 | 317 | 1.7 | 4.3 | 0.00 | 0.00 | 0.00 | 96 | 1011.9 |
| 20260503070544 | 46 | 304 | 2.6 | 4.3 | 0.00 | 0.00 | 0.00 | 96 | 1012.0 |
| 20260503055044 | 46 | 317 | 2.6 | 4.3 | 0.00 | 0.00 | 0.00 | 96 | 1012.2 |
| 20260503054550 | 46 | 315 | 2.6 | 4.3 | 0.00 | 0.00 | 0.00 | 96 | 1012.2 |
| 20260503054044 | 46 | 313 | 2.6 | 7.0 | 0.00 | 0.00 | 0.00 | 96 | 1012.3 |
| 20260503053544 | 46 | 313 | 1.7 | 7.0 | 0.00 | 0.00 | 0.00 | 96 | 1012.3 |
| 20260503053053 | 46 | 313 | 3.5 | 7.0 | 0.00 | 0.00 | 0.00 | 95 | 1012.3 |
| 20260503052544 | 46 | 319 | 3.5 | 6.1 | 0.00 | 0.00 | 0.00 | 95 | 1012.2 |
| 20260503052044 | 46 | 323 | 2.6 | 6.1 | 0.00 | 0.00 | 0.00 | 96 | 1012.4 |
| 20260503051551 | 46 | 297 | 3.5 | 7.8 | 0.00 | 0.00 | 0.00 | 95 | 1012.5 |
| 20260503051043 | 46 | 303 | 3.5 | 7.8 | 0.00 | 0.00 | 0.00 | 96 | 1012.4 |
| 20260503050544 | 46 | 308 | 3.5 | 7.8 | 0.00 | 0.00 | 0.00 | 96 | 1012.4 |
| 20260503050054 | 46 | 317 | 3.5 | 7.0 | 0.00 | 0.00 | 0.00 | 96 | 1012.5 |
| 20260503045545 | 46 | 307 | 2.6 | 7.8 | 0.00 | 0.00 | 0.00 | 96 | 1012.4 |
| 20260503045045 | 46 | 301 | 3.5 | 7.8 | 0.00 | 0.00 | 0.00 | 96 | 1012.3 |
| 20260503044554 | 46 | 306 | 2.6 | 6.1 | 0.00 | 0.00 | 0.00 | 96 | 1012.3 |
| 20260503044047 | 46 | 315 | 2.6 | 7.8 | 0.00 | 0.00 | 0.00 | 96 | 1012.3 |
| 20260503043544 | 46 | 306 | 3.5 | 7.8 | 0.00 | 0.00 | 0.00 | 95 | 1012.2 |
| 20260503043051 | 46 | 311 | 3.5 | 7.8 | 0.00 | 0.00 | 0.00 | 95 | 1012.2 |
| 20260503042545 | 46 | 299 | 4.3 | 8.7 | 0.00 | 0.00 | 0.00 | 95 | 1012.2 |
| 20260503042044 | 46 | 304 | 4.3 | 8.7 | 0.00 | 0.00 | 0.00 | 95 | 1012.1 |
| 20260503041548 | 46 | 297 | 3.5 | 7.8 | 0.00 | 0.00 | 0.00 | 95 | 1012.1 |
| 20260503041047 | 46 | 317 | 3.5 | 7.8 | 0.00 | 0.00 | 0.00 | 95 | 1012.1 |
| 20260503040543 | 46 | 311 | 4.3 | 7.8 | 0.00 | 0.00 | 0.00 | 95 | 1012.1 |
| 20260503040049 | 46 | 310 | 4.3 | 7.8 | 0.00 | 0.00 | 0.00 | 95 | 1011.9 |
| 20260503035544 | 46 | 311 | 6.1 | 7.8 | 0.00 | 0.00 | 0.00 | 95 | 1011.9 |
| 20260503035045 | 46 | 313 | 4.3 | 8.7 | 0.00 | 0.00 | 0.00 | 95 | 1011.7 |
| 20260503034554 | 46 | 295 | 5.2 | 8.7 | 0.00 | 0.00 | 0.00 | 95 | 1011.8 |
| 20260503034047 | 46 | 294 | 4.3 | 7.8 | 0.00 | 0.00 | 0.00 | 95 | 1011.7 |
| 20260503033544 | 46 | 304 | 3.5 | 7.8 | 0.00 | 0.00 | 0.00 | 95 | 1011.7 |
| 20260503033051 | 46 | 302 | 3.5 | 7.8 | 0.00 | 0.00 | 0.00 | 95 | 1011.6 |
| 20260503032544 | 46 | 316 | 4.3 | 7.8 | 0.00 | 0.00 | 0.00 | 95 | 1011.6 |
| 20260503032044 | 46 | 312 | 4.3 | 7.8 | 0.00 | 0.00 | 0.00 | 95 | 1011.5 |
| 20260503031557 | 46 | 313 | 4.3 | 7.8 | 0.00 | 0.00 | 0.00 | 95 | 1011.5 |
| 20260503031044 | 46 | 290 | 3.5 | 7.8 | 0.00 | 0.00 | 0.00 | 95 | 1011.5 |
| 20260503030543 | 46 | 304 | 4.3 | 7.8 | 0.00 | 0.00 | 0.00 | 95 | 1011.5 |
| 20260503030049 | 46 | 296 | 3.5 | 7.0 | 0.00 | 0.00 | 0.00 | 95 | 1011.4 |
| 20260503025544 | 47 | 322 | 3.5 | 7.0 | 0.00 | 0.00 | 0.00 | 95 | 1011.5 |
| 20260503025045 | 47 | 292 | 3.5 | 7.0 | 0.00 | 0.00 | 0.00 | 95 | 1011.4 |
| 20260503024549 | 47 | 303 | 3.5 | 7.0 | 0.00 | 0.00 | 0.00 | 95 | 1011.3 |
| 20260503024044 | 47 | 301 | 3.5 | 7.0 | 0.00 | 0.00 | 0.00 | 94 | 1011.2 |
| 20260503023544 | 47 | 304 | 3.5 | 7.8 | 0.00 | 0.00 | 0.00 | 94 | 1011.2 |
| 20260503023057 | 47 | 316 | 3.5 | 7.8 | 0.00 | 0.00 | 0.00 | 94 | 1011.2 |
| 20260503022543 | 47 | 279 | 4.3 | 7.8 | 0.00 | 0.00 | 0.00 | 94 | 1011.1 |
| 20260503022043 | 47 | 305 | 4.3 | 8.7 | 0.00 | 0.00 | 0.00 | 94 | 1011.1 |